Regional Weather Roundup
Issued by NWS

Home | Current Version | Previous Version | Text Only | Print | Product List | Glossary Off
Versions: 1 2 3 4 5 6 7 8 9 10 11 12 13 14 15 16 17 18 19 20 21 22 23 24 25 26 27

000
ASUS45 KTFX 250710
RWRMT
MONTANA REGIONAL WEATHER ROUNDUP
NATIONAL WEATHER SERVICE GREAT FALLS MT
100 AM MDT WED MAY 25 2016

NOTE: "FAIR" INDICATES FEW OR NO CLOUDS BELOW 12000 FEET WITH NO
SIGNIFICANT WEATHER AND/OR OBSTRUCTIONS TO VISIBILITY.

MTZ001>007-043-250800-
WEST OF THE DIVIDE

CITY           SKY/WX    TMP DP  RH WIND       PRES   REMARKS
KALISPELL      MOCLDY    41  41 100 CALM      29.92S
MISSOULA       CLEAR     42  38  85 CALM      29.96S
BUTTE          PTCLDY    36  34  92 S5        29.98S
MULLAN PASS    FOG       39  39 100 NW6       29.98S VSB 1/4
ANACONDA         N/A     39  36  87 SW3       29.96F
DEER LODGE       N/A     41  37  87 CALM      29.97S
EUREKA           N/A     50  41  71 SE8       29.91S
HAMILTON         N/A     46  43  87 S3        29.96R
LIBBY            N/A     45  43  93 CALM      29.93S
PLAINS           N/A     43  39  85 CALM      29.96S
$$

MTZ008-052>055-250800-
SOUTHWEST MONTANA

CITY           SKY/WX    TMP DP  RH WIND       PRES   REMARKS
BOZEMAN        CLOUDY    45  40  82 SE5       29.94S
DILLON         MOCLDY    42  38  85 S6        29.95S
ENNIS          MOCLDY    41  39  93 S8        30.00F
TWIN BRIDGES     N/A     45  35  67 NW2       29.94R
$$

MTZ009-010-012-014-046-048-049-054-250800-
EAST SLOPES AND CENTRAL MONTANA

CITY           SKY/WX    TMP DP  RH WIND       PRES   REMARKS
CUT BANK       PTCLDY    43  38  82 W6        29.88F
GREAT FALLS    CLEAR     43  39  86 S10       29.90S
MALMSTROM AFB  CLEAR     44  40  86 SW12      29.90S
HELENA         PTCLDY    47  41  80 SW8       29.92F
CHOTEAU          N/A     45  41  87 S6        29.90S
CONRAD           N/A     40  40 100 SW5       29.91F
$$

MTZ011-013-016-021-045-047-050-051-250800-
NORTH CENTRAL MONTANA

CITY           SKY/WX    TMP DP  RH WIND       PRES   REMARKS
HAVRE            N/A    N/A N/A N/A MISG      29.88S
LEWISTOWN      CLEAR     39  35  86 SE5       29.91F
N BAR RANCH      N/A     39  37  93 W6G12     29.94S
CHINOOK          N/A     45  45 100 CALM      29.89S
$$

MTZ017>020-022>027-061-062-250800-
NORTHEAST MONTANA

CITY           SKY/WX    TMP DP  RH WIND       PRES   REMARKS
GLASGOW        PTCLDY    49  43  80 NE9       29.88F
JORDAN           N/A     43  40  89 W3        29.88F
SIDNEY         CLOUDY    57  41  55 N13       29.88S
WOLF POINT     MOCLDY    51  43  74 CALM      29.89F
PLENTYWOOD       N/A     48  43  81 NE6       29.90S
POPLAR           N/A     52  41  66 NE3       29.90S
SCOBEY           N/A     40  28  62 W1        29.89S
$$

MTZ028>42-056>058-250800-
SOUTHCENTRAL AND SOUTHEAST MONTANA

CITY           SKY/WX    TMP DP  RH WIND       PRES   REMARKS
BAKER          CLOUDY    54  47  77 S3        29.85F
BILLINGS       CLOUDY    49  43  80 NE5       29.91S
LIVINGSTON     CLOUDY    45  40  82 SE7       29.93S
MILES CITY     LGT RAIN  53  47  79 NE16      29.86F
EKALAKA          N/A     52  46  79 S2        29.82F
FORSYTH          N/A     54  52  94 CALM      29.87S
$$

REGIONAL REPORTS...DAKOTAS

CITY           SKY/WX    TMP DP  RH WIND       PRES   REMARKS
WILLISTON      CLOUDY    54  38  54 N8        29.87F
MINOT          CLOUDY    62  44  51 NE5       29.87S
DICKINSON      CLOUDY    55  49  80 CALM      29.83F
BEACH          LGT RAIN  52  48  87 W6        29.90R
CROSBY           N/A     45  37  76 NW7       29.91S
WATFORD CITY     N/A     50  39  66 CALM      29.86S
BISMARCK       CLOUDY    63  52  67 SE8       29.87R
GRAND FORKS    MOCLDY    64  49  57 E10       29.87F
FARGO          CLOUDY    66  50  56 E10       29.85F
BUFFALO SD       N/A     57  46  66 CALM      29.80F
RAPID CITY     CLOUDY    53  49  86 SE5       29.83F
$$

REGIONAL REPORTS...WYOMING/IDAHO/WASHINGTON

CITY           SKY/WX    TMP DP  RH WIND       PRES   REMARKS
GILLETTE       MOCLDY    44  43  96 CALM      29.89R
SHERIDAN       LGT RAIN  49  45  86 NW13      29.91R
BUFFALO WY     CLOUDY    47  43  86 N14G22    29.92S
CODY           CLOUDY    46  43  87 SE7       29.91F
YELLOWSTONE LA   N/A     33  31  92 CALM      30.02F
IDAHO FALLS    LGT RAIN  48  43  82 SE6       29.95R
SALMON         MOCLDY    50  37  62 S10       29.93S
BOISE          MOCLDY    59  38  45 NW8       29.88S
SPOKANE        PTCLDY    53  46  77 S6        29.93S
$$

REGIONAL REPORTS...ALBERTA

CITY           SKY/WX    TMP DP  RH WIND       PRES   REMARKS
EDMONTON       PTCLDY    48  39  71 SE6       29.82S
CALGARY        CLEAR     46  37  71 S7        29.85F
LETHBRIDGE     PTCLDY    43  41  93 S9        29.86F
MEDICINE HAT   CLEAR     43  43 100 SE2       29.88R
WATERTON GATE    N/A     48  37  66 SW15G23     N/A
MILK RIVER       N/A     41  39  93 W1          N/A
ONEFOUR          N/A     43  39  87 SE6         N/A
$$

REGIONAL REPORTS...SASKATCHEWAN

CITY           SKY/WX    TMP DP  RH WIND       PRES   REMARKS
SWIFT CURRENT  MOCLDY    45  45 100 SW6       29.87R FOG
REGINA         CLEAR     43  39  87 SE7       29.89R
SASKATOON      CLEAR     46  46 100 NE10G17   29.88S
CYPRESS HILLS    N/A     37  36  93 W1          N/A
ROCKGLEN         N/A     43  41  93 S3          N/A
ASSINIBOIA       N/A     48  46  93 S6          N/A
$$




USA.gov is the U.S. government's official web portal to all federal, state and local government web resources and services.